[[{"header":{"parameterUnit":"m.s-1","parameterCategory":1,"la1":30.2991,"la2":30.254,"lo1":-89.0895,"lo2":-89.0444,"dy":0.0017,"dx":0.0017,"nx":28,"ny":28,"refTime":"2025-03-28T21:00:00:Z","depth":0,"parameterNumber":2,"parameterNumberName":"U-component_of_WINDS"},"data":[0,0,0,0,0,0,0,0,0,0,0,0,0,0,0,0,0,0,0,0,0,0,0,0,0,0,0,0,0,0,0,0,0,0,0,0,0,0,0,0,0,0,0,0,0,0,0,0,0,0,0,0,0,0,0,0,0,0,-5.6813,-5.6814,0,-5.6959,-5.696,-5.6962,-5.6965,-5.6963,-5.6962,-5.696,-5.7109,-5.7115,-5.712,0,0,0,0,0,0,0,0,0,0,0,0,0,-5.6538,-5.6543,-5.6813,-5.6814,-5.6816,-5.6958,-5.696,-5.6962,-5.6966,-5.6963,-5.6961,-5.6959,-5.7107,-5.7114,-5.7121,0,0,0,0,0,0,0,0,0,0,0,0,0,-5.6668,-5.6545,-5.6812,-5.6835,-5.6838,-5.6958,-5.696,-5.6963,-5.6966,-5.6963,-5.6961,-5.6958,-5.7105,-5.7113,-5.7122,-5.7229,0,0,-5.7148,-5.7151,0,0,0,0,0,0,0,0,-5.6661,-5.6678,-5.683,-5.6834,-5.6838,-5.6941,-5.6918,-5.7052,-5.6967,-5.6918,-5.696,-5.6957,-5.7055,-5.7068,-5.7101,-5.7236,-5.7242,-5.7149,-5.7154,-5.7157,-5.716,0,0,0,0,0,0,0,-5.6652,-5.6672,-5.687,-5.6832,-5.6837,-5.6838,-5.6854,-5.6944,-5.7,-5.6922,-5.6922,-5.6939,-5.7057,-5.7093,-5.7105,-5.7244,-5.7148,-5.7156,-5.7161,-5.7164,-5.7474,-5.7477,0,0,0,0,0,0,-5.6638,-5.6664,-5.6866,-5.6875,-5.6741,-5.6846,-5.6863,-5.6911,-5.6999,-5.701,-5.6942,-5.6939,-5.708,-5.7095,-5.711,-5.724,-5.7157,-5.7165,-5.717,-5.7471,-5.7475,-5.7478,0,0,0,0,0,0,-5.6632,-5.6656,-5.686,-5.677,-5.6796,-5.6853,-5.6907,-5.6915,-5.6951,-5.7014,-5.7024,-5.6968,-5.7078,-5.7098,-5.7199,-5.7245,-5.7169,-5.7177,-5.7467,-5.7472,-5.7477,-5.7501,0,0,0,0,0,0,-5.6624,-5.6654,-5.6694,-5.6771,-5.6801,-5.6946,-5.691,-5.692,-5.6965,-5.6963,-5.7041,-5.7052,-5.7078,-5.7186,-5.7208,-5.7256,-5.7183,-5.7464,-5.747,-5.7475,-5.7496,-5.7506,-5.7515,0,0,0,0,0,-5.6614,-5.6695,-5.6696,-5.672,-5.6852,-5.6949,-5.6966,-5.6994,-5.6969,-5.701,-5.7052,-5.7049,-5.7238,-5.7197,-5.7221,-5.7272,-5.7461,-5.7468,-5.7475,-5.7492,-5.7504,-5.7514,0,0,0,0,0,0,-5.6622,-5.6705,-5.6707,-5.6815,-5.6875,-5.6949,-5.7001,-5.7006,-5.7073,-5.7068,-5.7101,-5.7119,-5.7219,-5.7257,-5.7209,-5.738,-5.7346,-5.7358,-5.7352,-5.7363,-5.7372,-5.736,-5.719,0,0,0,0,0,-5.6637,-5.6707,-5.6777,-5.6865,-5.6895,-5.6944,-5.6986,-5.7004,-5.7066,-5.7091,-5.714,-5.7201,-5.7274,-5.7322,-5.7392,-5.7504,-5.752,-5.7551,-5.756,-5.7567,-5.7576,-5.7637,-5.7651,-5.7502,-5.7502,-5.7501,0,0,-5.6666,-5.6721,-5.6763,-5.6868,-5.6916,-5.6989,-5.6964,-5.7042,-5.7097,-5.7103,-5.7201,-5.724,-5.731,-5.7417,-5.7466,-5.7451,-5.7622,-5.7576,-5.7581,-5.7586,-5.7646,-5.766,-5.7673,-5.7506,-5.7505,-5.7505,0,0,-5.6757,-5.6806,-5.6885,-5.6934,-5.7008,-5.704,-5.7059,-5.7134,-5.7159,-5.7258,-5.7265,-5.7331,-5.7456,-5.7506,-5.7548,-5.7662,-5.7662,-5.7685,-5.773,-5.779,-5.7802,-5.7812,-5.7851,-5.7865,-5.7694,-5.7695,-5.7695,0,-5.6785,-5.6894,-5.6925,-5.7003,-5.7049,-5.706,-5.7141,-5.7187,-5.728,-5.7312,-5.7294,-5.7452,-5.7501,-5.7619,-5.7647,-5.7681,-5.7704,-5.7674,-5.7798,-5.7808,-5.7819,-5.7856,-5.7871,-5.7697,-5.7696,-5.7696,-5.7696,0,-5.6924,-5.7,-5.7056,-5.7145,-5.7198,-5.7277,-5.732,-5.737,-5.7384,-5.7418,-5.752,-5.7579,-5.7662,-5.7693,-5.7706,-5.7813,-5.7801,-5.7791,-5.7756,-5.7834,-5.787,-5.7885,-5.7699,-5.7699,-5.7698,-5.7698,0,0,-5.702,-5.7128,-5.7147,-5.7188,-5.7272,-5.7331,-5.7412,-5.7493,-5.7535,-5.76,-5.7668,-5.7776,-5.7766,-5.7814,-5.7835,-5.7887,-5.7972,-5.787,-5.7872,-5.7885,-5.8093,-5.8098,-5.8114,-5.7975,-5.7978,-5.798,-5.8086,0,-5.7118,-5.726,-5.7291,-5.7414,-5.7484,-5.7498,-5.7568,-5.7627,-5.7663,-5.7728,-5.7768,-5.7843,-5.7826,-5.7854,-5.7908,-5.795,-5.8014,-5.7944,-5.8037,-5.804,-5.8015,-5.8133,-5.8139,-5.8236,-5.8101,-5.8103,-5.8105,0,-5.7251,-5.7319,-5.7448,-5.7523,-5.7554,-5.7616,-5.7694,-5.7757,-5.7825,-5.7848,-5.7902,-5.7918,-5.8003,-5.7968,-5.8085,-5.8036,-5.8077,-5.8105,-5.8109,-5.8116,-5.8074,-5.8141,-5.8268,-5.8281,-5.8128,-5.8126,-5.8124,0,-5.7305,-5.7429,-5.7523,-5.7558,-5.7648,-5.7692,-5.7732,-5.7797,-5.7845,-5.7914,-5.7945,-5.8023,-5.8065,-5.8126,-5.8163,-5.8134,-5.8277,-5.8245,-5.8297,-5.8296,-5.8323,-5.832,-5.8456,-5.8355,-5.8355,-5.8354,-5.8354,0,-5.7409,-5.7487,-5.7548,-5.7605,-5.7694,-5.7731,-5.7817,-5.7858,-5.7916,-5.7982,-5.8,-5.8061,-5.8107,-5.8175,-5.8205,-5.8297,-5.8317,-5.8337,-5.8343,-5.8333,-5.8331,-5.8358,-5.8351,-5.8358,-5.8357,-5.8357,-5.8356,0,-5.7483,-5.7527,-5.7629,-5.7708,-5.7729,-5.7791,-5.7858,-5.7914,-5.7952,-5.8034,-5.8056,-5.8114,-5.8196,-5.8239,-5.8341,-5.8362,-5.8464,-5.8468,-5.844,-5.8442,-5.8491,-5.8485,-5.8646,-5.8669,-5.8555,-5.8556,-5.8557,0,-5.7545,-5.7605,-5.769,-5.7735,-5.7776,-5.7849,-5.7898,-5.7938,-5.7988,-5.8072,-5.8118,-5.8201,-5.8268,-5.8398,-5.8449,-5.8528,-5.8532,-5.8584,-5.8544,-5.8532,-5.853,-5.8525,-5.8531,-5.8589,-5.859,-5.8591,-5.8592,0,-5.765,-5.7669,-5.7738,-5.7817,-5.7874,-5.7938,-5.8,-5.8037,-5.8087,-5.8143,-5.8227,-5.8279,-5.8384,-5.8465,-5.8549,-5.859,-5.8599,-5.8605,-5.862,-5.8609,-5.859,-5.8599,-5.8456,-5.86,-5.8599,-5.8598,-5.8598,-5.8598,-5.7718,-5.7772,-5.7841,-5.7918,-5.797,-5.8028,-5.8085,-5.813,-5.82,-5.8288,-5.8309,-5.8396,-5.8465,-5.8577,-5.8622,-5.8692,-5.8682,-5.8705,-5.871,-5.8715,-5.8715,-5.8582,-5.8708,-5.8707,-5.8707,-5.8707,-5.8707,0,-5.7822,-5.7867,-5.7938,-5.8025,-5.8086,-5.8092,-5.8162,-5.8212,-5.8289,-5.8353,-5.842,-5.8516,-5.8596,-5.8655,-5.8737,-5.8781,-5.8788,-5.8801,-5.8797,-5.8806,-5.8721,-5.8698,-5.8795,-5.8795,-5.8795,-5.8795,-5.8795,-5.8795,-5.7882,-5.7974,-5.8002,-5.8121,-5.8166,-5.8252,-5.8291,-5.8346,-5.8397,-5.8503,-5.857,-5.8608,-5.867,-5.8757,-5.8831,-5.8847,-5.8875,-5.8888,-5.8903,-5.8822,-5.8812,-5.8803,-5.8781,-5.8894,-5.8894,-5.8982,-5.8983,-5.8984]},{"header":{"parameterUnit":"m.s-1","parameterCategory":1,"la1":30.2991,"la2":30.254,"lo1":-89.0895,"lo2":-89.0444,"dy":0.0017,"dx":0.0017,"nx":28,"ny":28,"refTime":"2025-03-28T21:00:00:Z","depth":0,"parameterNumber":3,"parameterNumberName":"V-component_of_WINDS"},"data":[0,0,0,0,0,0,0,0,0,0,0,0,0,0,0,0,0,0,0,0,0,0,0,0,0,0,0,0,0,0,0,0,0,0,0,0,0,0,0,0,0,0,0,0,0,0,0,0,0,0,0,0,0,0,0,0,0,0,4.4746,4.4747,0,4.4828,4.4829,4.483,4.4815,4.4814,4.4813,4.4811,4.4892,4.4895,4.4899,0,0,0,0,0,0,0,0,0,0,0,0,0,4.4573,4.4576,4.4746,4.4747,4.4748,4.4828,4.4829,4.483,4.4816,4.4814,4.4812,4.4811,4.4891,4.4895,4.4899,0,0,0,0,0,0,0,0,0,0,0,0,0,4.4651,4.4577,4.4745,4.475,4.4751,4.4828,4.4829,4.4831,4.4816,4.4814,4.4812,4.481,4.4889,4.4894,4.4899,4.4975,0,0,4.4915,4.4918,0,0,0,0,0,0,0,0,4.4646,4.4657,4.4748,4.475,4.4751,4.4809,4.4798,4.4879,4.4817,4.4791,4.4811,4.4809,4.4866,4.4873,4.4893,4.4979,4.4982,4.4916,4.4919,4.4921,4.4923,0,0,0,0,0,0,0,4.4641,4.4653,4.4778,4.475,4.4752,4.4747,4.4756,4.4813,4.484,4.4793,4.4793,4.4803,4.4866,4.4888,4.4895,4.4984,4.4916,4.492,4.4924,4.4926,4.5138,4.5141,0,0,0,0,0,0,4.4635,4.4649,4.4776,4.4781,4.4693,4.4752,4.4762,4.4793,4.4839,4.4844,4.4805,4.4802,4.488,4.4889,4.4897,4.4991,4.4921,4.4926,4.4929,4.5136,4.5139,4.5142,0,0,0,0,0,0,4.4631,4.4646,4.4772,4.4715,4.4731,4.4758,4.4792,4.4796,4.4818,4.4847,4.4852,4.4822,4.4879,4.489,4.4957,4.4994,4.4929,4.4933,4.5133,4.5137,4.514,4.5178,0,0,0,0,0,0,4.4626,4.4645,4.4674,4.4716,4.4734,4.4831,4.4795,4.4799,4.4827,4.4824,4.4865,4.487,4.4878,4.4949,4.4962,4.5,4.4937,4.513,4.5135,4.5139,4.5173,4.5182,4.519,0,0,0,0,0,4.462,4.468,4.4676,4.4691,4.4771,4.4833,4.4843,4.4853,4.483,4.486,4.488,4.4868,4.4987,4.4956,4.4971,4.501,4.5128,4.5133,4.5139,4.5169,4.518,4.519,0,0,0,0,0,0,4.464,4.4685,4.4681,4.4756,4.4791,4.483,4.4868,4.4864,4.4904,4.49,4.4908,4.4918,4.4986,4.5004,4.4969,4.5087,4.5054,4.5063,4.5073,4.5083,4.5091,4.5086,4.4942,0,0,0,0,0,4.4653,4.4701,4.4737,4.48,4.4818,4.4841,4.4868,4.4872,4.4908,4.4922,4.4946,4.4981,4.5026,4.5055,4.5099,4.5176,4.5185,4.521,4.5219,4.5225,4.5233,4.5277,4.5289,4.516,4.516,4.516,0,0,4.4681,4.4712,4.4741,4.4805,4.4833,4.4882,4.4853,4.4905,4.4941,4.4929,4.4995,4.5014,4.5053,4.5126,4.5159,4.5144,4.5271,4.5233,4.5238,4.5242,4.5284,4.5296,4.5307,4.5164,4.5163,4.5163,0,0,4.4757,4.4784,4.4841,4.487,4.4913,4.4928,4.4942,4.4982,4.4995,4.5062,4.5055,4.5097,4.5175,4.5204,4.5228,4.5318,4.531,4.5332,4.5375,4.5418,4.5428,4.5437,4.5471,4.5482,4.5339,4.5339,4.5339,0,4.4785,4.4859,4.487,4.4924,4.4953,4.4948,4.5005,4.5032,4.5086,4.5107,4.5089,4.5188,4.5213,4.5294,4.5316,4.5336,4.5352,4.5327,4.5426,4.5435,4.5444,4.5476,4.5488,4.5342,4.5341,4.5341,4.5341,0,4.4893,4.4945,4.4985,4.5041,4.5074,4.513,4.5149,4.5181,4.5184,4.52,4.5268,4.5299,4.535,4.5369,4.5371,4.5451,4.544,4.5424,4.5391,4.5459,4.5489,4.5501,4.5345,4.5344,4.5343,4.5343,0,0,4.4982,4.5045,4.506,4.5086,4.5134,4.5174,4.523,4.5281,4.5309,4.5347,4.5394,4.5462,4.5448,4.5476,4.5481,4.5519,4.559,4.5498,4.5499,4.5515,4.5682,4.5694,4.5708,4.5585,4.5587,4.5589,4.5679,0,4.5064,4.5164,4.5176,4.5265,4.5313,4.531,4.5358,4.5393,4.5411,4.5454,4.5472,4.5521,4.5498,4.5516,4.5553,4.5574,4.5624,4.5567,4.5629,4.5631,4.562,4.5724,4.5737,4.582,4.5691,4.5693,4.5694,0,4.5172,4.5216,4.531,4.5354,4.5374,4.5418,4.5467,4.5509,4.5548,4.5559,4.5592,4.5593,4.565,4.5615,4.5695,4.5656,4.5682,4.5697,4.57,4.5707,4.5667,4.5734,4.5847,4.5859,4.5713,4.5711,4.571,0,4.5229,4.5312,4.5379,4.5401,4.5454,4.5485,4.5508,4.5546,4.5577,4.5619,4.564,4.5687,4.5714,4.5751,4.5765,4.5738,4.5845,4.581,4.5855,4.5855,4.5877,4.5876,4.5997,4.5893,4.5893,4.5893,4.5892,0,4.5319,4.5377,4.5406,4.5448,4.5513,4.5527,4.5591,4.5612,4.5646,4.5692,4.5691,4.5733,4.5749,4.5794,4.5805,4.5871,4.5882,4.5892,4.5894,4.5893,4.5892,4.591,4.5905,4.5896,4.5895,4.5895,4.5894,0,4.5394,4.5416,4.549,4.5535,4.5547,4.5594,4.5632,4.5672,4.569,4.5748,4.5762,4.5789,4.5843,4.5861,4.5924,4.5932,4.6008,4.6005,4.5996,4.5996,4.604,4.6037,4.6178,4.6198,4.608,4.6081,4.6082,0,4.5451,4.5496,4.5546,4.5578,4.5603,4.5653,4.5686,4.5701,4.5735,4.5785,4.5819,4.5873,4.5916,4.6002,4.6027,4.6076,4.6075,4.6121,4.6082,4.608,4.6077,4.6075,4.608,4.6128,4.613,4.6131,4.6131,0,4.5549,4.5559,4.5606,4.5658,4.5698,4.5739,4.5778,4.5804,4.5825,4.5863,4.5919,4.5953,4.602,4.6074,4.6124,4.6147,4.6144,4.6144,4.6157,4.6156,4.6149,4.6155,4.6017,4.614,4.6139,4.6139,4.6138,4.6138,4.5618,4.5659,4.5702,4.5755,4.5787,4.5825,4.5866,4.589,4.5937,4.5994,4.6,4.6061,4.6101,4.6169,4.6195,4.6242,4.6229,4.6247,4.6252,4.6257,4.6261,4.6142,4.6251,4.6251,4.6251,4.625,4.625,0,4.5717,4.5746,4.5795,4.5852,4.5894,4.5889,4.5933,4.5969,4.6023,4.6061,4.6105,4.617,4.6222,4.6253,4.6305,4.6337,4.6337,4.6351,4.6349,4.6354,4.6269,4.6253,4.635,4.635,4.635,4.635,4.635,4.635,4.5774,4.5844,4.5859,4.5944,4.5972,4.6032,4.6059,4.6094,4.6125,4.6198,4.6242,4.6263,4.6298,4.6353,4.6401,4.6409,4.6429,4.6444,4.645,4.637,4.636,4.635,4.6335,4.6448,4.6448,4.6532,4.6532,4.6533]}]]